Flag for Russia Weather past 2 weeks in Volgograd, Russia

34 °F

More clouds than sun.

Feels Like: 29 °F
Forecast: 34 / 43 °F
Wind: 6 mph from South

Location: Volgograd Airport

Current Time: Dec 1, 2015 at 9:01:18 AM

Latest Report: Dec 1, 2015 at 8:00 AM

Visibility: N/A

Pressure: 29.95 "Hg

Humidity: 100%

Dew point: 34 °F

Location of VolgogradLocation

Historic Weather in Volgograd — Graph


Volgograd temperature yesterday

Maximum temperature yesterday: 41 °F (at 5:30 PM)
Minimum temperature yesterday: 32 °F (at 12:00 AM)
Average temperature yesterday: 36 °F

Past Weeks' High & Low Weather Summary

High63 °F (Nov 23, 12:30 PM)100% (Nov 17, 6:00 AM)30.30 "Hg (Nov 17, 6:00 AM)
Low16 °F (Nov 28, 5:30 AM)39% (Nov 23, 12:30 PM)29.68 "Hg (Nov 21, 3:00 AM)
Average38 °F85%30.01 "Hg
* Reported Nov 16 7:00 AM — Dec 1 7:30 AM, Volgograd, Weather by CustomWeather, © 2015

Note: Actual official high and low records may vary slightly from our data, if they occured in-between our weather recording intervals... More about our weather records


Volgograd weather history for previous 24 hours

Time TempWeatherWind HumidityBarometerVisibility
7:30 AM
Tue, Dec 1
34 °FClear.6 mph100%29.95 "Hg10 mi
7:00 AM34 °FClear.6 mph93%29.95 "Hg10 mi
6:30 AM34 °FClear.8 mph93%29.95 "Hg10 mi
5:30 AM34 °FClear.8 mph93%29.95 "Hg10 mi
5:00 AM32 °FClear.6 mph100%29.95 "Hg10 mi
3:30 AM32 °FClear.6 mph100%29.95 "Hg10 mi
3:00 AM32 °FClear.6 mph100%29.98 "Hg10 mi
2:30 AM32 °FClear.8 mph100%29.98 "Hg10 mi
2:00 AM34 °FClear.8 mph93%29.98 "Hg10 mi
1:30 AM34 °FClear.6 mph100%29.98 "Hg10 mi
1:00 AM34 °FPassing clouds.6 mph100%29.98 "HgN/A
12:30 AM36 °FPartly cloudy.8 mph100%29.98 "HgN/A
12:00 AM39 °FPassing clouds.6 mph100%29.98 "HgN/A
11:30 PM
Mon, Nov 30
39 °FOvercast.8 mph100%29.98 "HgN/A
11:00 PM39 °FOvercast.8 mph100%29.98 "HgN/A
10:30 PM39 °FOvercast.8 mph100%29.98 "HgN/A
10:00 PM39 °FOvercast.6 mph100%29.98 "HgN/A
9:30 PM39 °FOvercast.6 mph100%29.98 "HgN/A
9:00 PM39 °FOvercast.8 mph100%29.98 "HgN/A
8:30 PM39 °FOvercast.6 mph100%29.98 "HgN/A
8:00 PM39 °FOvercast.6 mph100%29.98 "HgN/A
7:30 PM39 °FOvercast.6 mph100%29.98 "HgN/A
7:00 PM39 °FFog.6 mph100%29.98 "Hg2 mi
6:30 PM39 °FFog.8 mph100%29.98 "Hg0 mi
6:00 PM41 °FFog.8 mph93%29.98 "Hg0 mi
5:30 PM41 °FSleet. Overcast.8 mph93%29.98 "Hg0 mi
5:00 PM39 °FFog.8 mph100%29.98 "Hg0 mi
4:30 PM39 °FSleet. Overcast.10 mph100%29.98 "Hg0 mi
4:00 PM37 °FSleet. Cloudy.10 mph100%29.98 "Hg0 mi
3:30 PM39 °FSleet. Cloudy.10 mph93%29.98 "Hg0 mi
3:00 PM39 °FSleet. Cloudy.10 mph100%29.98 "Hg0 mi
2:30 PM37 °FSleet. Cloudy.10 mph100%29.98 "Hg0 mi
2:00 PM37 °FSleet. Cloudy.15 mph100%29.95 "Hg0 mi
1:30 PM37 °FFog.10 mph100%29.98 "Hg0 mi
1:00 PM37 °FSleet. Cloudy.13 mph100%29.98 "Hg0 mi
12:30 PM37 °FSleet. Cloudy.10 mph100%29.98 "Hg0 mi
12:00 PM36 °FSleet. Cloudy.13 mph100%29.98 "Hg0 mi
11:30 AM36 °FSleet. Cloudy.10 mph100%29.98 "Hg0 mi
11:00 AM34 °FSleet. Cloudy.10 mph100%30.01 "Hg0 mi
10:30 AM34 °FSleet. Cloudy.10 mph100%30.01 "Hg0 mi
10:00 AM34 °FSleet. Cloudy.13 mph93%30.01 "Hg0 mi
9:30 AM32 °FSleet. Cloudy.13 mph100%30.01 "Hg0 mi
9:00 AM32 °FSleet. Cloudy.15 mph100%30.01 "Hg0 mi
Weather by CustomWeather, © 2015

See weather overviewHow to use our weather pages